Location: Ladrillo (historical)
(32.8195°N, 117.2231°W)
Time: 07:13:44
(UTC+00:00)

FO-99 - Pass Details

Date: 14 April 2021
Orbit: 472 x 506 km, 97.2° (Epoch: 09 May)

Event Time Altitude Azimuth Distance (km) Brightness Sun altitude
Exits shadow 04:21:14 41° 250° (WSW) 738 ? -24.9°
Maximum altitude 04:21:28 42° 261° (W) 730 ? -24.9°
Drops below altitude 10° 04:25:01 10° 334° (NNW) 1,722 ? -25.6°
Sets 04:27:11 0° 341° (NNW) 2,612 ? -26.0°
